Location: Bishop's University Astronomical Observatory
(45.3661°N, 71.8475°W)
Time: 16:03:49
(UTC-05:00)

CZ-4C R/B - Visible Passes

Search period start: 14 February 2016 00:00
Search period end: 24 February 2016 00:00
Orbit: 751 x 1251 km, 63.4° (Epoch: 13 February)

Date Brightness Start Highest point End Pass type
(mag) Time Alt. Az. Time Alt. Az. Time Alt. Az.
14 Feb 4.3 03:34:41 19° N 03:34:41 19° N 03:37:55 10° NNE visible
14 Feb 4.5 05:20:39 10° NNW 05:24:28 16° N 05:28:33 10° NE visible
15 Feb 4.9 02:21:56 14° NNE 02:21:56 14° NNE 02:22:57 10° NNE visible
15 Feb 4.4 04:07:07 16° NNW 04:07:58 16° N 04:11:57 10° NNE visible
15 Feb 4.6 05:54:36 10° NNW 05:59:13 19° NNE 06:04:11 10° ENE visible
16 Feb 4.6 02:54:21 17° N 02:54:21 17° N 02:56:31 10° NNE visible
16 Feb 4.5 04:39:32 11° NNW 04:42:47 16° N 04:46:43 10° NE visible
17 Feb 5.3 01:41:35 10° NNE 01:41:35 10° NNE 01:41:35 10° NNE visible
17 Feb 4.5 03:26:45 17° N 03:26:45 17° N 03:30:24 10° NNE visible
17 Feb 4.6 05:13:11 10° NNW 05:17:34 18° NNE 05:22:16 10° ENE visible
18 Feb 5.0 02:13:59 14° NNE 02:13:59 14° NNE 02:15:08 10° NNE visible
18 Feb 4.5 03:59:09 14° NNW 04:01:05 16° N 04:04:58 10° NE visible
18 Feb 4.5 05:46:49 10° NNW 05:52:10 25° NNE 05:57:59 10° E visible
19 Feb 4.7 02:46:22 16° N 02:46:22 16° N 02:48:54 10° NNE visible
19 Feb 4.7 04:31:44 10° NNW 04:35:54 17° NNE 04:40:21 10° NE visible
20 Feb 5.3 01:33:35 11° NNE 01:33:35 11° NNE 01:33:45 10° NNE visible
20 Feb 4.6 03:18:45 15° N 03:19:23 16° N 03:23:15 10° NNE visible
20 Feb 4.6 05:05:28 10° NNW 05:10:34 23° NNE 05:16:05 10° ENE visible
21 Feb 5.0 02:05:58 14° NNE 02:05:58 14° NNE 02:07:26 10° NNE visible
21 Feb 4.6 03:51:08 12° NNW 03:54:13 17° N 03:58:27 10° NE visible
21 Feb 4.2 05:38:55 10° NNW 05:44:58 33° NE 05:51:34 10° E visible
22 Feb 4.7 02:38:20 16° N 02:38:20 16° N 02:41:37 10° NNE visible
22 Feb 4.7 04:24:06 10° NNW 04:28:56 21° NNE 04:34:09 10° ENE visible
23 Feb 5.2 01:25:32 11° NNE 01:25:32 11° NNE 01:26:01 10° NNE visible
23 Feb 4.7 03:10:42 14° NNW 03:12:32 16° N 03:16:35 10° NE visible
23 Feb 4.3 04:57:36 10° NNW 05:03:24 30° NNE 05:09:45 10° E visible
